Time,TemperatureF,DewpointF,PressureIn,WindDirection,WindDirectionDegrees,WindSpeedMPH,WindSpeedGustMPH,Humidity,HourlyPrecipIn,Conditions,Clouds,dailyrainin,SoftwareType,DateUTC
2013-07-16 00:01:00,74.8,73.9,30.22,SE,144,0.0,0.0,97,0.00,,,0.00,VWS V14.00,2013-07-16 04:01:00,
2013-07-16 00:03:00,74.9,74.0,30.22,SE,143,0.0,0.0,97,0.00,,,0.00,VWS V14.00,2013-07-16 04:03:00,
2013-07-16 00:08:00,74.8,73.9,30.22,SE,144,0.0,0.0,97,0.00,,,0.00,VWS V14.00,2013-07-16 04:08:00,
2013-07-16 00:13:00,74.8,73.9,30.22,SE,143,0.0,0.0,97,0.00,,,0.00,VWS V14.00,2013-07-16 04:13:00,
2013-07-16 00:18:00,74.7,73.8,30.22,SE,144,0.0,0.0,97,0.00,,,0.00,VWS V14.00,2013-07-16 04:18:00,
2013-07-16 00:23:00,74.6,73.7,30.22,SE,144,0.0,0.0,97,0.00,,,0.00,VWS V14.00,2013-07-16 04:23:00,
2013-07-16 00:28:00,74.5,73.6,30.22,SE,144,0.0,0.0,97,0.00,,,0.00,VWS V14.00,2013-07-16 04:28:00,
2013-07-16 00:34:00,74.4,73.8,30.22,SE,144,0.0,0.0,98,0.00,,,0.00,VWS V14.00,2013-07-16 04:34:00,
2013-07-16 00:39:00,74.4,73.8,30.22,SE,144,0.0,0.0,98,0.00,,,0.00,VWS V14.00,2013-07-16 04:39:00,
2013-07-16 00:44:00,74.2,73.3,30.22,SE,144,0.0,0.0,97,0.00,,,0.00,VWS V14.00,2013-07-16 04:44:00,
2013-07-16 00:49:00,74.1,73.2,30.22,SE,142,0.0,0.0,97,0.00,,,0.00,VWS V14.00,2013-07-16 04:49:00,
2013-07-16 00:54:00,74.0,73.1,30.22,SE,143,0.0,0.0,97,0.00,,,0.00,VWS V14.00,2013-07-16 04:54:00,
2013-07-16 00:59:00,73.8,72.9,30.21,SE,144,0.0,0.0,97,0.00,,,0.00,VWS V14.00,2013-07-16 04:59:00,
2013-07-16 01:04:00,73.7,72.8,30.22,SE,144,0.0,0.0,97,0.00,,,0.00,VWS V14.00,2013-07-16 05:04:00,
2013-07-16 01:09:00,73.7,72.8,30.22,SE,144,0.0,0.0,97,0.00,,,0.00,VWS V14.00,2013-07-16 05:09:00,
2013-07-16 01:15:00,73.6,73.0,30.21,SE,143,0.0,0.0,98,0.00,,,0.00,VWS V14.00,2013-07-16 05:15:00,
2013-07-16 01:20:00,73.6,73.0,30.21,SE,144,0.0,0.0,98,0.00,,,0.00,VWS V14.00,2013-07-16 05:20:00,
2013-07-16 01:25:00,73.6,73.0,30.21,SE,144,0.0,0.0,98,0.00,,,0.00,VWS V14.00,2013-07-16 05:25:00,
2013-07-16 01:30:00,73.4,72.8,30.22,SE,144,0.0,0.0,98,0.00,,,0.00,VWS V14.00,2013-07-16 05:30:00,
2013-07-16 01:35:00,73.2,72.6,30.21,SE,144,0.0,0.0,98,0.00,,,0.00,VWS V14.00,2013-07-16 05:35:00,
2013-07-16 01:40:00,73.1,72.5,30.21,SE,144,0.0,0.0,98,0.00,,,0.00,VWS V14.00,2013-07-16 05:40:00,
2013-07-16 01:45:00,73.0,72.4,30.21,SE,144,0.0,0.0,98,0.00,,,0.00,VWS V14.00,2013-07-16 05:45:00,
2013-07-16 01:51:00,72.9,72.3,30.21,SE,144,0.0,0.0,98,0.00,,,0.00,VWS V14.00,2013-07-16 05:51:00,
2013-07-16 01:56:00,72.8,72.2,30.21,SE,144,0.0,0.0,98,0.00,,,0.00,VWS V14.00,2013-07-16 05:56:00,
2013-07-16 02:01:00,72.8,72.2,30.21,SE,144,0.0,0.0,98,0.00,,,0.00,VWS V14.00,2013-07-16 06:01:00,
2013-07-16 02:06:00,72.8,72.2,30.21,SE,144,0.0,0.0,98,0.00,,,0.00,VWS V14.00,2013-07-16 06:06:00,
2013-07-16 02:11:00,72.7,72.1,30.21,SE,144,0.0,0.0,98,0.00,,,0.00,VWS V14.00,2013-07-16 06:11:00,
2013-07-16 02:16:00,72.6,72.0,30.20,SE,144,0.0,0.0,98,0.00,,,0.00,VWS V14.00,2013-07-16 06:16:00,
2013-07-16 02:21:00,72.6,72.0,30.21,SE,144,0.0,0.0,98,0.00,,,0.00,VWS V14.00,2013-07-16 06:21:00,
2013-07-16 02:26:00,72.5,71.9,30.21,SE,144,0.0,0.0,98,0.00,,,0.00,VWS V14.00,2013-07-16 06:26:00,
2013-07-16 02:32:00,72.5,71.9,30.21,SE,144,0.0,0.0,98,0.00,,,0.00,VWS V14.00,2013-07-16 06:32:00,
2013-07-16 02:37:00,72.4,71.8,30.20,SE,144,0.0,0.0,98,0.00,,,0.00,VWS V14.00,2013-07-16 06:37:00,
2013-07-16 02:42:00,72.3,71.7,30.20,SE,144,0.0,1.0,98,0.00,,,0.00,VWS V14.00,2013-07-16 06:42:00,
2013-07-16 02:47:00,72.1,71.5,30.20,SE,144,0.0,1.0,98,0.00,,,0.00,VWS V14.00,2013-07-16 06:47:00,
2013-07-16 02:52:00,72.1,71.5,30.20,SE,144,0.0,0.0,98,0.00,,,0.00,VWS V14.00,2013-07-16 06:52:00,
2013-07-16 02:57:00,72.2,71.6,30.21,SE,144,0.0,0.0,98,0.00,,,0.00,VWS V14.00,2013-07-16 06:57:00,
2013-07-16 03:02:00,72.2,71.6,30.21,SE,144,0.0,0.0,98,0.00,,,0.00,VWS V14.00,2013-07-16 07:02:00,
2013-07-16 03:07:00,72.2,71.6,30.21,SE,144,0.0,0.0,98,0.00,,,0.00,VWS V14.00,2013-07-16 07:07:00,
2013-07-16 03:12:00,72.2,71.6,30.20,SE,144,0.0,0.0,98,0.00,,,0.00,VWS V14.00,2013-07-16 07:12:00,
2013-07-16 03:18:00,72.2,71.6,30.20,SE,144,0.0,0.0,98,0.00,,,0.00,VWS V14.00,2013-07-16 07:18:00,
2013-07-16 03:23:00,72.1,71.5,30.20,SE,144,0.0,0.0,98,0.00,,,0.00,VWS V14.00,2013-07-16 07:23:00,
2013-07-16 03:28:00,72.0,71.4,30.20,SE,144,0.0,0.0,98,0.00,,,0.00,VWS V14.00,2013-07-16 07:28:00,
2013-07-16 03:33:00,72.0,71.4,30.21,SE,143,0.0,0.0,98,0.00,,,0.00,VWS V14.00,2013-07-16 07:33:00,
2013-07-16 03:38:00,71.9,71.3,30.21,SE,144,0.0,0.0,98,0.00,,,0.00,VWS V14.00,2013-07-16 07:38:00,
2013-07-16 03:43:00,71.8,71.5,30.21,SE,144,0.0,0.0,99,0.00,,,0.00,VWS V14.00,2013-07-16 07:43:00,
2013-07-16 03:48:00,71.7,71.1,30.21,SE,144,0.0,0.0,98,0.00,,,0.00,VWS V14.00,2013-07-16 07:48:00,
2013-07-16 03:54:00,71.6,71.0,30.21,SE,144,0.0,0.0,98,0.00,,,0.00,VWS V14.00,2013-07-16 07:54:00,
2013-07-16 03:59:00,71.6,71.0,30.21,SE,144,0.0,0.0,98,0.00,,,0.00,VWS V14.00,2013-07-16 07:59:00,
2013-07-16 04:04:00,71.5,70.9,30.21,SE,144,0.0,0.0,98,0.00,,,0.00,VWS V14.00,2013-07-16 08:04:00,
2013-07-16 04:09:00,71.6,71.0,30.21,SE,144,0.0,0.0,98,0.00,,,0.00,VWS V14.00,2013-07-16 08:09:00,
2013-07-16 04:14:00,71.6,71.0,30.21,SE,144,0.0,0.0,98,0.00,,,0.00,VWS V14.00,2013-07-16 08:14:00,
2013-07-16 04:19:00,71.6,71.0,30.21,SE,144,0.0,0.0,98,0.00,,,0.00,VWS V14.00,2013-07-16 08:19:00,
2013-07-16 04:24:00,71.5,71.2,30.21,SE,144,0.0,0.0,99,0.00,,,0.00,VWS V14.00,2013-07-16 08:24:00,
2013-07-16 04:29:00,71.5,71.2,30.20,SE,144,0.0,0.0,99,0.00,,,0.00,VWS V14.00,2013-07-16 08:29:00,
2013-07-16 04:35:00,71.5,71.2,30.20,SE,144,0.0,0.0,99,0.00,,,0.00,VWS V14.00,2013-07-16 08:35:00,
2013-07-16 04:40:00,71.5,71.2,30.21,SE,143,0.0,0.0,99,0.00,,,0.00,VWS V14.00,2013-07-16 08:40:00,
2013-07-16 04:45:00,71.4,71.1,30.20,SE,144,0.0,0.0,99,0.00,,,0.00,VWS V14.00,2013-07-16 08:45:00,
2013-07-16 04:50:00,71.4,71.1,30.20,SE,144,0.0,0.0,99,0.00,,,0.00,VWS V14.00,2013-07-16 08:50:00,
2013-07-16 04:55:00,71.4,71.1,30.20,SE,144,0.0,0.0,99,0.00,,,0.00,VWS V14.00,2013-07-16 08:55:00,
2013-07-16 05:00:00,71.4,71.1,30.20,SE,144,0.0,0.0,99,0.00,,,0.00,VWS V14.00,2013-07-16 09:00:00,
2013-07-16 05:05:00,71.3,71.0,30.21,SE,144,0.0,0.0,99,0.00,,,0.00,VWS V14.00,2013-07-16 09:05:00,
2013-07-16 05:11:00,71.3,71.0,30.21,SE,144,0.0,0.0,99,0.00,,,0.00,VWS V14.00,2013-07-16 09:11:00,
2013-07-16 05:16:00,71.3,71.0,30.21,SE,144,0.0,0.0,99,0.00,,,0.00,VWS V14.00,2013-07-16 09:16:00,
2013-07-16 05:21:00,71.2,70.9,30.21,SE,142,0.0,0.0,99,0.00,,,0.00,VWS V14.00,2013-07-16 09:21:00,
2013-07-16 05:26:00,71.2,70.9,30.21,SE,144,0.0,0.0,99,0.00,,,0.00,VWS V14.00,2013-07-16 09:26:00,
2013-07-16 05:31:00,71.3,71.0,30.21,SE,144,0.0,0.0,99,0.00,,,0.00,VWS V14.00,2013-07-16 09:31:00,
2013-07-16 05:36:00,71.3,71.0,30.21,SE,144,0.0,0.0,99,0.00,,,0.00,VWS V14.00,2013-07-16 09:36:00,
2013-07-16 05:41:00,71.3,71.0,30.21,SE,144,0.0,0.0,99,0.00,,,0.00,VWS V14.00,2013-07-16 09:41:00,
2013-07-16 05:46:00,71.3,71.0,30.21,SE,144,0.0,0.0,99,0.00,,,0.00,VWS V14.00,2013-07-16 09:46:00,
2013-07-16 05:52:00,71.2,70.9,30.22,SE,144,0.0,0.0,99,0.00,,,0.00,VWS V14.00,2013-07-16 09:52:00,
2013-07-16 05:57:00,71.1,70.8,30.22,SE,144,0.0,0.0,99,0.00,,,0.00,VWS V14.00,2013-07-16 09:57:00,
2013-07-16 06:02:00,71.1,70.8,30.22,SE,144,0.0,0.0,99,0.00,,,0.00,VWS V14.00,2013-07-16 10:02:00,
2013-07-16 06:07:00,71.0,70.7,30.22,SE,144,0.0,0.0,99,0.00,,,0.00,VWS V14.00,2013-07-16 10:07:00,
2013-07-16 06:12:00,70.9,70.6,30.23,SE,144,0.0,0.0,99,0.00,,,0.00,VWS V14.00,2013-07-16 10:12:00,
2013-07-16 06:17:00,70.9,70.6,30.23,SE,144,0.0,0.0,99,0.00,,,0.00,VWS V14.00,2013-07-16 10:17:00,
2013-07-16 06:23:00,71.0,70.7,30.23,SE,144,0.0,0.0,99,0.00,,,0.00,VWS V14.00,2013-07-16 10:23:00,
2013-07-16 06:28:00,71.0,70.7,30.23,SE,144,0.0,0.0,99,0.00,,,0.00,VWS V14.00,2013-07-16 10:28:00,
2013-07-16 06:33:00,71.0,70.7,30.23,SE,144,0.0,0.0,99,0.00,,,0.00,VWS V14.00,2013-07-16 10:33:00,
2013-07-16 06:38:00,71.1,70.8,30.23,SE,144,0.0,0.0,99,0.00,,,0.00,VWS V14.00,2013-07-16 10:38:00,
2013-07-16 06:43:00,71.2,70.9,30.23,SE,144,0.0,0.0,99,0.00,,,0.00,VWS V14.00,2013-07-16 10:43:00,
2013-07-16 06:48:00,71.3,71.0,30.23,SE,144,0.0,0.0,99,0.00,,,0.00,VWS V14.00,2013-07-16 10:48:00,
2013-07-16 07:30:00,72.5,72.2,30.24,North,0,0.0,0.0,99,0.00,,,0.00,VWS V14.00,2013-07-16 11:30:00,
2013-07-16 07:50:00,73.3,73.3,30.24,SE,143,0.0,0.0,100,0.00,,,0.00,VWS V14.00,2013-07-16 11:50:00,
2013-07-16 07:55:00,73.7,73.4,30.24,SE,144,0.0,0.0,99,0.00,,,0.00,VWS V14.00,2013-07-16 11:55:00,
2013-07-16 08:00:00,74.0,74.0,30.24,SE,144,0.0,0.0,100,0.00,,,0.00,VWS V14.00,2013-07-16 12:00:00,
2013-07-16 08:05:00,74.3,74.0,30.24,SE,144,0.0,0.0,99,0.00,,,0.00,VWS V14.00,2013-07-16 12:05:00,
2013-07-16 08:10:00,74.6,74.6,30.24,SE,144,0.0,0.0,100,0.00,,,0.00,VWS V14.00,2013-07-16 12:10:00,
2013-07-16 08:15:00,74.9,74.9,30.24,SE,144,0.0,0.0,100,0.00,,,0.00,VWS V14.00,2013-07-16 12:15:00,
2013-07-16 08:20:00,75.3,75.3,30.24,SE,144,0.0,0.0,100,0.00,,,0.00,VWS V14.00,2013-07-16 12:20:00,
2013-07-16 08:26:00,75.7,75.7,30.24,SE,144,0.0,0.0,100,0.00,,,0.00,VWS V14.00,2013-07-16 12:26:00,
2013-07-16 08:31:00,76.2,76.2,30.24,SE,144,1.0,1.0,100,0.00,,,0.00,VWS V14.00,2013-07-16 12:31:00,
2013-07-16 08:36:00,76.6,76.6,30.25,SE,144,0.0,2.0,100,0.00,,,0.00,VWS V14.00,2013-07-16 12:36:00,
2013-07-16 08:41:00,76.9,76.9,30.25,East,96,0.0,1.0,100,0.00,,,0.00,VWS V14.00,2013-07-16 12:41:00,
2013-07-16 08:46:00,77.4,77.4,30.25,ENE,75,2.0,2.0,100,0.00,,,0.00,VWS V14.00,2013-07-16 12:46:00,
2013-07-16 08:52:00,77.9,77.9,30.24,ENE,75,1.0,2.0,100,0.00,,,0.00,VWS V14.00,2013-07-16 12:52:00,
2013-07-16 08:57:00,78.3,78.3,30.24,ENE,75,1.0,3.0,100,0.00,,,0.00,VWS V14.00,2013-07-16 12:57:00,
2013-07-16 09:02:00,78.6,78.6,30.24,ENE,75,1.0,2.0,100,0.00,,,0.00,VWS V14.00,2013-07-16 13:02:00,
2013-07-16 09:07:00,78.8,78.2,30.24,ENE,61,0.0,3.0,98,0.00,,,0.00,VWS V14.00,2013-07-16 13:07:00,
2013-07-16 09:12:00,79.0,78.1,30.24,ENE,61,0.0,1.0,97,0.00,,,0.00,VWS V14.00,2013-07-16 13:12:00,
2013-07-16 09:17:00,79.0,76.5,30.24,ENE,66,0.0,4.0,92,0.00,,,0.00,VWS V14.00,2013-07-16 13:17:00,
2013-07-16 09:23:00,79.5,77.3,30.24,ENE,66,0.0,2.0,93,0.00,,,0.00,VWS V14.00,2013-07-16 13:23:00,
2013-07-16 09:28:00,80.2,77.3,30.23,ENE,68,1.0,4.0,91,0.00,,,0.00,VWS V14.00,2013-07-16 13:28:00,
2013-07-16 09:33:00,80.7,77.5,30.23,ENE,67,1.0,4.0,90,0.00,,,0.00,VWS V14.00,2013-07-16 13:33:00,
2013-07-16 09:38:00,81.3,77.8,30.23,ENE,67,0.0,4.0,89,0.00,,,0.00,VWS V14.00,2013-07-16 13:38:00,
2013-07-16 09:43:00,81.9,78.0,30.23,NE,51,0.0,2.0,88,0.00,,,0.00,VWS V14.00,2013-07-16 13:43:00,
2013-07-16 09:49:00,82.7,78.4,30.23,ENE,63,2.0,3.0,87,0.00,,,0.00,VWS V14.00,2013-07-16 13:49:00,
2013-07-16 09:54:00,83.2,78.2,30.23,ENE,63,2.0,3.0,85,0.00,,,0.00,VWS V14.00,2013-07-16 13:54:00,
2013-07-16 09:59:00,83.3,77.2,30.23,ENE,63,1.0,3.0,82,0.00,,,0.00,VWS V14.00,2013-07-16 13:59:00,
2013-07-16 10:04:00,83.6,77.2,30.23,ENE,63,0.0,4.0,81,0.00,,,0.00,VWS V14.00,2013-07-16 14:04:00,
2013-07-16 10:10:00,84.1,78.4,30.23,WSW,243,0.0,4.0,83,0.00,,,0.00,VWS V14.00,2013-07-16 14:10:00,
2013-07-16 10:15:00,84.6,77.8,30.23,NNE,14,1.0,2.0,80,0.00,,,0.00,VWS V14.00,2013-07-16 14:15:00,
2013-07-16 10:20:00,84.9,77.7,30.23,NNE,14,0.0,2.0,79,0.00,,,0.00,VWS V14.00,2013-07-16 14:20:00,
2013-07-16 10:25:00,85.4,78.5,30.23,NNE,15,0.0,1.0,80,0.00,,,0.00,VWS V14.00,2013-07-16 14:25:00,
2013-07-16 10:30:00,85.5,77.1,30.23,NNE,14,1.0,2.0,76,0.00,,,0.00,VWS V14.00,2013-07-16 14:30:00,
2013-07-16 10:35:00,85.6,76.4,30.23,ENE,60,3.0,4.0,74,0.00,,,0.00,VWS V14.00,2013-07-16 14:35:00,
2013-07-16 10:40:00,85.6,77.6,30.23,ENE,60,0.0,4.0,77,0.00,,,0.00,VWS V14.00,2013-07-16 14:40:00,
2013-07-16 10:46:00,85.9,77.9,30.23,ENE,60,0.0,2.0,77,0.00,,,0.00,VWS V14.00,2013-07-16 14:46:00,
2013-07-16 10:51:00,86.3,76.6,30.23,ENE,60,0.0,3.0,73,0.00,,,0.00,VWS V14.00,2013-07-16 14:51:00,
2013-07-16 10:56:00,86.4,76.7,30.23,ENE,57,2.0,3.0,73,0.00,,,0.00,VWS V14.00,2013-07-16 14:56:00,
2013-07-16 11:01:00,86.4,76.7,30.23,ENE,57,0.0,3.0,73,0.00,,,0.00,VWS V14.00,2013-07-16 15:01:00,
2013-07-16 11:06:00,86.7,76.6,30.22,NE,56,1.0,3.0,72,0.00,,,0.00,VWS V14.00,2013-07-16 15:06:00,
2013-07-16 11:11:00,86.9,76.8,30.22,NE,56,0.0,0.0,72,0.00,,,0.00,VWS V14.00,2013-07-16 15:11:00,
2013-07-16 11:16:00,87.1,77.4,30.23,ENE,57,0.0,1.0,73,0.00,,,0.00,VWS V14.00,2013-07-16 15:16:00,
2013-07-16 11:22:00,87.3,78.0,30.23,NNE,30,2.0,2.0,74,0.00,,,0.00,VWS V14.00,2013-07-16 15:22:00,
2013-07-16 11:27:00,87.5,77.8,30.22,West,277,0.0,2.0,73,0.00,,,0.00,VWS V14.00,2013-07-16 15:27:00,
2013-07-16 11:32:00,87.8,78.5,30.22,West,278,0.0,2.0,74,0.00,,,0.00,VWS V14.00,2013-07-16 15:32:00,
2013-07-16 11:37:00,88.0,77.8,30.22,North,9,1.0,2.0,72,0.00,,,0.00,VWS V14.00,2013-07-16 15:37:00,
2013-07-16 11:42:00,87.9,76.9,30.22,NE,42,0.0,2.0,70,0.00,,,0.00,VWS V14.00,2013-07-16 15:42:00,
2013-07-16 11:47:00,87.9,77.8,30.22,NE,44,0.0,2.0,72,0.00,,,0.00,VWS V14.00,2013-07-16 15:47:00,
2013-07-16 11:53:00,87.5,76.9,30.22,NE,48,1.0,2.0,71,0.00,,,0.00,VWS V14.00,2013-07-16 15:53:00,
2013-07-16 11:58:00,87.5,77.4,30.22,NE,49,0.0,3.0,72,0.00,,,0.00,VWS V14.00,2013-07-16 15:58:00,
2013-07-16 12:03:00,87.7,77.1,30.22,NE,48,1.0,2.0,71,0.00,,,0.00,VWS V14.00,2013-07-16 16:03:00,
2013-07-16 12:08:00,88.0,77.4,30.21,NE,48,0.0,2.0,71,0.00,,,0.00,VWS V14.00,2013-07-16 16:08:00,
2013-07-16 12:13:00,88.4,78.2,30.21,North,360,1.0,1.0,72,0.00,,,0.00,VWS V14.00,2013-07-16 16:13:00,
2013-07-16 12:18:00,88.9,77.4,30.21,WNW,291,1.0,2.0,69,0.00,,,0.00,VWS V14.00,2013-07-16 16:18:00,
2013-07-16 12:24:00,89.3,77.4,30.21,NE,38,0.0,2.0,68,0.00,,,0.00,VWS V14.00,2013-07-16 16:24:00,
2013-07-16 12:29:00,89.2,77.7,30.21,South,178,1.0,3.0,69,0.00,,,0.00,VWS V14.00,2013-07-16 16:29:00,
2013-07-16 12:34:00,89.7,78.2,30.21,WSW,250,0.0,1.0,69,0.00,,,0.00,VWS V14.00,2013-07-16 16:34:00,
2013-07-16 12:39:00,90.0,77.6,30.21,WNW,292,0.0,2.0,67,0.00,,,0.00,VWS V14.00,2013-07-16 16:39:00,
2013-07-16 12:44:00,89.9,78.4,30.21,WNW,292,0.0,0.0,69,0.00,,,0.00,VWS V14.00,2013-07-16 16:44:00,
2013-07-16 12:50:00,90.3,78.3,30.21,ENE,61,0.0,3.0,68,0.00,,,0.00,VWS V14.00,2013-07-16 16:50:00,
2013-07-16 12:55:00,90.5,78.5,30.21,SE,141,1.0,4.0,68,0.00,,,0.00,VWS V14.00,2013-07-16 16:55:00,
2013-07-16 13:00:00,90.6,78.6,30.21,SW,217,0.0,4.0,68,0.00,,,0.00,VWS V14.00,2013-07-16 17:00:00,
2013-07-16 13:05:00,90.2,77.3,30.21,ENE,65,0.0,3.0,66,0.00,,,0.00,VWS V14.00,2013-07-16 17:05:00,
2013-07-16 13:10:00,89.4,77.4,30.20,ENE,64,0.0,3.0,68,0.00,,,0.00,VWS V14.00,2013-07-16 17:10:00,
2013-07-16 13:15:00,89.0,77.5,30.20,ENE,65,0.0,0.0,69,0.00,,,0.00,VWS V14.00,2013-07-16 17:15:00,
2013-07-16 13:20:00,89.5,77.1,30.20,East,85,0.0,2.0,67,0.00,,,0.00,VWS V14.00,2013-07-16 17:20:00,
2013-07-16 13:26:00,90.2,78.2,30.20,NE,51,0.0,3.0,68,0.00,,,0.00,VWS V14.00,2013-07-16 17:26:00,
2013-07-16 13:31:00,90.5,79.4,30.20,NE,51,0.0,3.0,70,0.00,,,0.00,VWS V14.00,2013-07-16 17:31:00,
2013-07-16 13:36:00,90.8,76.9,30.20,WNW,294,0.0,2.0,64,0.00,,,0.00,VWS V14.00,2013-07-16 17:36:00,
2013-07-16 13:41:00,91.3,77.9,30.20,ENE,63,1.0,1.0,65,0.00,,,0.00,VWS V14.00,2013-07-16 17:41:00,
2013-07-16 13:46:00,91.4,76.1,30.20,NW,306,0.0,2.0,61,0.00,,,0.00,VWS V14.00,2013-07-16 17:46:00,
2013-07-16 13:51:00,91.8,75.9,30.19,SW,222,0.0,1.0,60,0.00,,,0.00,VWS V14.00,2013-07-16 17:51:00,
2013-07-16 13:57:00,92.1,75.7,30.19,ENE,68,0.0,2.0,59,0.00,,,0.00,VWS V14.00,2013-07-16 17:57:00,
2013-07-16 14:02:00,92.4,75.5,30.19,SSE,165,1.0,2.0,58,0.00,,,0.00,VWS V14.00,2013-07-16 18:02:00,
2013-07-16 14:07:00,93.0,79.5,30.19,South,169,0.0,2.0,65,0.00,,,0.00,VWS V14.00,2013-07-16 18:07:00,
2013-07-16 14:12:00,93.3,76.3,30.19,SE,134,0.0,4.0,58,0.00,,,0.00,VWS V14.00,2013-07-16 18:12:00,
2013-07-16 14:17:00,92.8,77.4,30.19,WSW,252,0.0,4.0,61,0.00,,,0.00,VWS V14.00,2013-07-16 18:17:00,
2013-07-16 14:22:00,92.9,75.9,30.18,WNW,300,2.0,3.0,58,0.00,,,0.00,VWS V14.00,2013-07-16 18:22:00,
2013-07-16 14:27:00,93.2,77.3,30.18,SSE,148,0.0,3.0,60,0.00,,,0.00,VWS V14.00,2013-07-16 18:27:00,
2013-07-16 14:32:00,93.7,75.6,30.18,NNE,22,1.0,2.0,56,0.00,,,0.00,VWS V14.00,2013-07-16 18:32:00,
2013-07-16 14:38:00,94.0,76.5,30.18,SSE,153,1.0,2.0,57,0.00,,,0.00,VWS V14.00,2013-07-16 18:38:00,
2013-07-16 14:43:00,94.2,76.6,30.18,SSW,192,2.0,3.0,57,0.00,,,0.00,VWS V14.00,2013-07-16 18:43:00,
2013-07-16 14:48:00,94.5,79.0,30.18,WNW,288,4.0,4.0,61,0.00,,,0.00,VWS V14.00,2013-07-16 18:48:00,
2013-07-16 14:54:00,93.5,80.0,30.18,WNW,295,0.0,2.0,65,0.00,,,0.00,VWS V14.00,2013-07-16 18:54:00,
2013-07-16 14:59:00,92.6,80.0,30.18,West,277,3.0,3.0,67,0.00,,,0.00,VWS V14.00,2013-07-16 18:59:00,
2013-07-16 15:04:00,91.8,80.2,30.18,West,271,0.0,2.0,69,0.00,,,0.00,VWS V14.00,2013-07-16 19:04:00,
2013-07-16 15:09:00,91.6,82.1,30.18,West,271,0.0,2.0,74,0.00,,,0.00,VWS V14.00,2013-07-16 19:09:00,
2013-07-16 15:14:00,91.5,79.9,30.17,SE,125,1.0,5.0,69,0.00,,,0.00,VWS V14.00,2013-07-16 19:14:00,
2013-07-16 15:19:00,91.8,81.1,30.17,SE,146,0.0,5.0,71,0.00,,,0.00,VWS V14.00,2013-07-16 19:19:00,
2013-07-16 15:24:00,91.9,79.4,30.17,South,186,0.0,2.0,67,0.00,,,0.00,VWS V14.00,2013-07-16 19:24:00,
2013-07-16 15:29:00,91.8,80.2,30.17,SW,229,1.0,2.0,69,0.00,,,0.00,VWS V14.00,2013-07-16 19:29:00,
2013-07-16 15:35:00,91.6,78.6,30.17,SE,145,0.0,3.0,66,0.00,,,0.00,VWS V14.00,2013-07-16 19:35:00,
2013-07-16 15:40:00,91.2,78.3,30.17,ESE,109,1.0,3.0,66,0.00,,,0.00,VWS V14.00,2013-07-16 19:40:00,
2013-07-16 15:45:00,91.0,80.3,30.17,West,268,2.0,3.0,71,0.00,,,0.00,VWS V14.00,2013-07-16 19:45:00,
2013-07-16 15:50:00,91.3,80.6,30.17,West,261,0.0,3.0,71,0.00,,,0.00,VWS V14.00,2013-07-16 19:50:00,
2013-07-16 15:55:00,91.6,79.6,30.17,ESE,119,5.0,5.0,68,0.00,,,0.00,VWS V14.00,2013-07-16 19:55:00,
2013-07-16 16:00:00,91.6,80.9,30.17,WNW,286,5.0,5.0,71,0.00,,,0.00,VWS V14.00,2013-07-16 20:00:00,
2013-07-16 16:05:00,91.6,78.6,30.16,South,180,1.0,2.0,66,0.00,,,0.00,VWS V14.00,2013-07-16 20:05:00,
2013-07-16 16:10:00,91.5,80.3,30.16,WNW,285,1.0,3.0,70,0.00,,,0.00,VWS V14.00,2013-07-16 20:10:00,
2013-07-16 16:15:00,91.5,78.5,30.16,WNW,301,1.0,4.0,66,0.00,,,0.00,VWS V14.00,2013-07-16 20:15:00,
2013-07-16 16:21:00,91.6,79.6,30.16,WNW,296,1.0,4.0,68,0.00,,,0.00,VWS V14.00,2013-07-16 20:21:00,
2013-07-16 16:30:00,91.6,79.1,30.16,SSW,202,0.0,3.0,67,0.00,,,0.00,VWS V14.00,2013-07-16 20:30:00,
2013-07-16 16:48:00,91.1,79.1,30.16,WSW,248,0.0,1.0,68,0.00,,,0.00,VWS V14.00,2013-07-16 20:48:00,
2013-07-16 16:53:00,91.0,79.4,30.16,WSW,248,1.0,2.0,69,0.00,,,0.00,VWS V14.00,2013-07-16 20:53:00,
2013-07-16 16:58:00,91.2,79.2,30.16,WNW,287,0.0,2.0,68,0.00,,,0.00,VWS V14.00,2013-07-16 20:58:00,
2013-07-16 17:03:00,91.5,79.9,30.16,WNW,290,1.0,2.0,69,0.00,,,0.00,VWS V14.00,2013-07-16 21:03:00,
2013-07-16 17:08:00,91.7,80.1,30.16,West,272,2.0,3.0,69,0.00,,,0.00,VWS V14.00,2013-07-16 21:08:00,
2013-07-16 17:13:00,91.6,79.6,30.16,NW,323,1.0,3.0,68,0.00,,,0.00,VWS V14.00,2013-07-16 21:13:00,
2013-07-16 17:18:00,91.5,79.4,30.16,NW,323,0.0,3.0,68,0.00,,,0.00,VWS V14.00,2013-07-16 21:18:00,
2013-07-16 17:23:00,91.6,79.1,30.15,SSE,164,1.0,2.0,67,0.00,,,0.00,VWS V14.00,2013-07-16 21:23:00,
2013-07-16 17:29:00,91.5,79.4,30.15,WSW,243,1.0,2.0,68,0.00,,,0.00,VWS V14.00,2013-07-16 21:29:00,
2013-07-16 17:34:00,91.2,79.2,30.15,NW,313,2.0,3.0,68,0.00,,,0.00,VWS V14.00,2013-07-16 21:34:00,
2013-07-16 17:39:00,91.0,79.0,30.15,SSW,207,1.0,4.0,68,0.00,,,0.00,VWS V14.00,2013-07-16 21:39:00,
2013-07-16 17:44:00,90.9,78.9,30.15,ESE,110,0.0,3.0,68,0.00,,,0.00,VWS V14.00,2013-07-16 21:44:00,
2013-07-16 17:49:00,90.9,79.3,30.14,SE,142,1.0,3.0,69,0.00,,,0.00,VWS V14.00,2013-07-16 21:49:00,
2013-07-16 17:54:00,90.9,78.9,30.14,West,264,1.0,4.0,68,0.00,,,0.00,VWS V14.00,2013-07-16 21:54:00,
2013-07-16 18:00:00,90.5,79.4,30.14,West,261,2.0,4.0,70,0.00,,,0.00,VWS V14.00,2013-07-16 22:00:00,
2013-07-16 18:05:00,90.1,78.6,30.14,WSW,250,1.0,2.0,69,0.00,,,0.00,VWS V14.00,2013-07-16 22:05:00,
2013-07-16 18:10:00,89.8,78.3,30.14,NW,310,1.0,3.0,69,0.00,,,0.00,VWS V14.00,2013-07-16 22:10:00,
2013-07-16 18:15:00,89.4,77.9,30.14,West,262,1.0,3.0,69,0.00,,,0.00,VWS V14.00,2013-07-16 22:15:00,
2013-07-16 18:20:00,88.8,78.2,30.14,WNW,302,1.0,4.0,71,0.00,,,0.00,VWS V14.00,2013-07-16 22:20:00,
2013-07-16 18:25:00,88.4,78.7,30.14,WNW,284,0.0,2.0,73,0.00,,,0.00,VWS V14.00,2013-07-16 22:25:00,
2013-07-16 18:30:00,88.1,78.4,30.15,SSW,213,0.0,3.0,73,0.00,,,0.00,VWS V14.00,2013-07-16 22:30:00,
2013-07-16 18:36:00,87.7,78.4,30.14,ENE,69,0.0,2.0,74,0.00,,,0.00,VWS V14.00,2013-07-16 22:36:00,
2013-07-16 18:41:00,87.5,78.6,30.14,WNW,293,0.0,2.0,75,0.00,,,0.00,VWS V14.00,2013-07-16 22:41:00,
2013-07-16 18:46:00,87.1,78.6,30.15,SW,216,0.0,3.0,76,0.00,,,0.00,VWS V14.00,2013-07-16 22:46:00,
2013-07-16 18:51:00,86.7,78.6,30.15,SW,215,0.0,3.0,77,0.00,,,0.00,VWS V14.00,2013-07-16 22:51:00,
2013-07-16 18:56:00,86.4,78.3,30.15,SW,216,0.0,2.0,77,0.00,,,0.00,VWS V14.00,2013-07-16 22:56:00,
2013-07-16 19:01:00,86.1,78.1,30.14,WNW,300,1.0,2.0,77,0.00,,,0.00,VWS V14.00,2013-07-16 23:01:00,
2013-07-16 19:06:00,85.9,78.2,30.15,West,261,0.0,2.0,78,0.00,,,0.00,VWS V14.00,2013-07-16 23:06:00,
2013-07-16 19:11:00,85.6,78.3,30.15,West,273,1.0,2.0,79,0.00,,,0.00,VWS V14.00,2013-07-16 23:11:00,
2013-07-16 19:16:00,85.3,78.1,30.15,WSW,247,0.0,2.0,79,0.00,,,0.00,VWS V14.00,2013-07-16 23:16:00,
2013-07-16 19:18:00,85.2,78.3,30.15,WSW,246,0.0,2.0,80,0.00,,,0.00,VWS V14.00,2013-07-16 23:18:00,
2013-07-16 19:21:00,85.2,78.3,30.15,WSW,246,0.0,2.0,80,0.00,,,0.00,VWS V14.00,2013-07-16 23:21:00,
2013-07-16 19:27:00,85.2,78.3,30.15,WSW,246,0.0,2.0,80,0.00,,,0.00,VWS V14.00,2013-07-16 23:27:00,